DW6828 Weather Reports


time (UTC)temp
C
wind
direction
speed
KPH
gust
KPH
rain 1hr
cm
rain 24hr
cm
rain mn
cm
humidity
%
barometer
mb
20260504041540 10 282 3.2 14.5 0.00 0.00 0.00 58 1004.3
20260504040042 11 278 8.0 20.9 0.00 0.00 0.00 56 1004.3
20260504034547 11 281 4.8 17.7 0.00 0.00 0.00 54 1004.3
20260504033046 11 268 8.0 22.5 0.00 0.00 0.00 51 1004.2
20260504031602 11 262 4.8 19.3 0.00 0.00 0.00 47 1004.2
20260504030043 11 273 6.4 19.3 0.00 0.00 0.00 46 1004.1
20260504024542 11 237 4.8 14.5 0.00 0.00 0.00 44 1004.3
20260504023039 11 229 0.0 6.4 0.00 0.00 0.00 44 1004.3
20260504021538 11 0 1.6 8.0 0.00 0.00 0.00 44 1004.5
20260504020043 11 0 0.0 8.0 0.00 0.00 0.00 44 1004.4
20260504014536 11 0 4.8 16.1 0.00 0.00 0.00 43 1004.5
20260504013042 11 220 9.7 25.7 0.00 0.00 0.00 45 1004.6
20260504011547 11 0 0.0 0.0 0.00 0.00 0.00 51 1004.3
20260504010045 11 0 0.0 4.8 0.00 0.00 0.00 50 1004.3
20260504004538 11 0 0.0 8.0 0.00 0.00 0.00 48 1004.1
20260504003042 12 0 0.0 0.0 0.00 0.00 0.00 47 1004.0
20260504001601 12 0 0.0 8.0 0.00 0.00 0.00 44 1003.9
20260504000041 13 0 0.0 8.0 0.00 0.00 0.00 40 1004.1
20260503234540 13 0 0.0 6.4 0.00 0.00 0.00 28 1003.8
20260503233039 13 0 0.0 6.4 0.00 0.00 0.00 28 1003.8
20260503231546 13 0 0.0 16.1 0.00 0.00 0.00 28 1003.8
20260503230044 14 0 3.2 16.1 0.00 0.00 0.00 27 1003.9
20260503224535 14 0 3.2 12.9 0.00 0.00 0.00 26 1003.9
20260503223043 14 260 1.6 12.9 0.00 0.00 0.00 26 1003.9
20260503221540 15 338 3.2 14.5 0.00 0.00 0.00 26 1004.0
20260503220040 15 319 1.6 14.5 0.00 0.00 0.00 26 1003.9
20260503214543 15 245 1.6 14.5 0.00 0.00 0.00 26 1004.0
20260503213052 15 0 1.6 16.1 0.00 0.00 0.00 26 1004.2
20260503211602 15 294 0.0 16.1 0.00 0.00 0.00 25 1004.4
20260503210039 16 329 0.0 17.7 0.00 0.00 0.00 26 1004.3
20260503204557 16 266 4.8 17.7 0.00 0.00 0.00 25 1004.6
20260503203040 16 304 1.6 9.7 0.00 0.00 0.00 27 1004.7
20260503201540 15 278 6.4 25.7 0.00 0.00 0.00 28 1004.9
20260503200043 15 0 0.0 14.5 0.00 0.00 0.00 29 1005.0
20260503194541 15 0 3.2 11.3 0.00 0.00 0.00 27 1005.3
20260503193040 15 289 6.4 19.3 0.00 0.00 0.00 29 1005.5
20260503191555 14 0 3.2 12.9 0.00 0.00 0.00 30 1005.8
20260503190040 14 261 1.6 14.5 0.00 0.00 0.00 30 1006.0
20260503184537 14 0 1.6 12.9 0.00 0.00 0.00 32 1006.1
20260503183046 14 210 8.0 17.7 0.00 0.00 0.00 30 1006.5
20260503181542 13 0 0.0 9.7 0.00 0.00 0.00 30 1006.6
20260503180039 13 0 3.2 14.5 0.00 0.00 0.00 32 1006.9
20260503174551 13 0 6.4 16.1 0.00 0.00 0.00 33 1007.0
20260503173038 13 0 3.2 20.9 0.00 0.00 0.00 32 1007.2
20260503171536 12 0 3.2 14.5 0.00 0.00 0.00 33 1007.4
20260503081554 3 0 0.0 0.0 0.00 0.00 0.00 63 1009.9
20260503071558 3 0 0.0 0.0 0.00 0.00 0.00 63 1009.9
20260503054554 4 0 0.0 0.0 0.00 0.00 0.00 63 1010.1
20260503053040 4 0 0.0 0.0 0.00 0.00 0.00 63 1010.2
20260503051547 4 0 0.0 0.0 0.00 0.00 0.00 63 1010.3
20260503050037 5 0 0.0 0.0 0.00 0.00 0.00 61 1010.4
20260503044536 5 0 0.0 0.0 0.00 0.00 0.00 60 1010.6
20260503043045 5 0 0.0 0.0 0.00 0.00 0.00 58 1010.7